GW0463 Weather Reports


Display with metric or nautical units.
time (UTC)temp
F
wind
direction
speed
MPH
gust
MPH
rain 1hr
in
rain 24hr
in
rain mn
in
humidity
%
barometer
mb
20260504230052 75 235 7.0 13.0 0.00 0.00 0.00 24 1005.4
20260504224603 77 183 2.0 9.0 0.00 0.00 0.00 17 1005.4
20260504223056 78 239 4.0 8.0 0.00 0.00 0.00 18 1005.4
20260504221603 77 284 3.0 7.0 0.00 0.00 0.00 16 1005.5
20260504220057 77 202 2.0 10.0 0.00 0.00 0.00 16 1005.6
20260504214603 78 294 3.0 8.0 0.00 0.00 0.00 17 1005.9
20260504213109 78 234 1.0 5.0 0.00 0.00 0.00 20 1006.2
20260504211557 77 208 1.0 7.0 0.00 0.00 0.00 18 1006.3
20260504210105 77 198 3.0 10.0 0.00 0.00 0.00 17 1006.6
20260504204636 77 0 1.0 8.0 0.00 0.00 0.00 20 1006.7
20260504203059 76 248 3.0 7.0 0.00 0.00 0.00 20 1006.8
20260504201559 75 0 2.0 7.0 0.00 0.00 0.00 20 1007.1
20260504194558 75 0 2.0 11.0 0.00 0.00 0.00 19 1007.6
20260504193055 74 245 2.0 8.0 0.00 0.00 0.00 24 1007.7
20260504191554 74 0 3.0 8.0 0.00 0.00 0.00 24 1007.8
20260504190101 74 261 2.0 7.0 0.00 0.00 0.00 21 1008.1
20260504184604 74 271 2.0 8.0 0.00 0.00 0.00 22 1008.1
20260504183100 75 268 2.0 6.0 0.00 0.00 0.00 22 1008.5
20260504181557 74 0 0.0 4.0 0.00 0.00 0.00 24 1008.6
20260504180055 74 0 0.0 4.0 0.00 0.00 0.00 26 1008.8
20260504174554 74 0 0.0 6.0 0.00 0.00 0.00 24 1008.9
20260504173056 73 0 0.0 4.0 0.00 0.00 0.00 26 1008.9
20260504171557 72 192 0.0 4.0 0.00 0.00 0.00 25 1009.1
20260504081600 50 0 0.0 0.0 0.00 0.00 0.00 51 1008.2
20260504044559 58 0 0.0 0.0 0.00 0.00 0.00 26 1008.8
20260504043056 59 0 0.0 0.0 0.00 0.00 0.00 26 1008.9
20260504041554 60 0 0.0 0.0 0.00 0.00 0.00 25 1008.9
20260504040059 61 0 0.0 1.0 0.00 0.00 0.00 24 1009.0
20260504034611 62 0 0.0 1.0 0.00 0.00 0.00 24 1009.0
20260504033055 63 0 0.0 1.0 0.00 0.00 0.00 25 1009.0
20260504031554 64 0 0.0 0.0 0.00 0.00 0.00 25 1008.9
20260504030058 66 0 0.0 0.0 0.00 0.00 0.00 25 1008.9
20260504024554 68 0 0.0 0.0 0.00 0.00 0.00 21 1008.9
20260504023055 70 0 0.0 0.0 0.00 0.00 0.00 18 1008.8
20260504021556 72 0 0.0 1.0 0.00 0.00 0.00 13 1009.0
20260504020059 72 0 0.0 0.0 0.00 0.00 0.00 14 1009.0
20260504014602 72 0 0.0 1.0 0.00 0.00 0.00 15 1009.2
20260504013055 73 0 0.0 1.0 0.00 0.00 0.00 15 1009.4
20260504011558 73 0 0.0 0.0 0.00 0.00 0.00 14 1009.6
20260504010058 74 0 0.0 1.0 0.00 0.00 0.00 12 1009.8
20260504004551 74 0 0.0 2.0 0.00 0.00 0.00 13 1009.9
20260504003059 75 0 0.0 4.0 0.00 0.00 0.00 11 1009.9
20260504001554 76 316 0.0 5.0 0.00 0.00 0.00 13 1010.0
20260504000056 77 0 0.0 5.0 0.00 0.00 0.00 12 1010.2
20260503234553 77 65 0.0 4.0 0.00 0.00 0.00 12 1010.2
20260503233054 77 34 0.0 4.0 0.00 0.00 0.00 15 1010.3
20260503231554 76 0 0.0 4.0 0.00 0.00 0.00 14 1010.5